Benton Harbor, MI

6:24 PM EDT on September 25, 2016 (GMT -0400)
Southwest Michigan Regional

Weather History for KBEH - August, 2013

Change the Weather History Date:

Thursday, August 15, 2013

  Actual Average Record
Temperature  
Mean Temperature 59 °F -  
Max Temperature 73 °F 81 °F 92 °F (1978)
Min Temperature 45 °F 59 °F 38 °F (1964)
Degree Days  
Heating Degree Days 6    
Growing Degree Days 9 (Base 50)    
Moisture  
Dew Point 52 °F    
Average Humidity 79    
Maximum Humidity 100    
Minimum Humidity 51    
Precipitation  
Precipitation 0.00 in - - ()
Sea Level Pressure  
Sea Level Pressure 30.16 in    
Wind  
Wind Speed 3 mph (West)    
Max Wind Speed 13 mph    
Max Gust Speed 18 mph    
Visibility 10 miles    
Events      
Averages and records for this station are not official NWS values.
T = Trace of Precipitation, MM = Missing Value Source: NWS Daily Summary

Daily Weather History Graph

Daily Weather History Graph

Search for Another Location

Airport or City:

Trip Planner

Search our weather history database for the weather conditions in past years. The results will help you decide how hot, cold, wet, or windy it might be!

Date:

Astronomy

Aug. 15, 2013 Rise Set
Actual Time 6:53 AM EDT 8:45 PM EDT
Civil Twilight 6:23 AM EDT 9:15 PM EDT
Nautical Twilight 5:46 AM EDT 9:52 PM EDT
Astronomical Twilight 5:06 AM EDT 10:32 PM EDT
Moon 4:04 PM EDT (8/15) 1:00 AM EDT (8/15)
Length of Visible Light 14h 52m
Length of Day
13h 52m
Waxing Gibbous, 64% of the Moon is Illuminated
Aug 15
Waxing Gibbous
Aug 20
Full
Aug 28
Last Quarter
Sep 5
New
Sep 12
First Quarter

Hourly Weather History & Observations

Time (EDT) Temp. Dew Point Humidity Pressure Visibility Wind Dir Wind Speed Gust Speed Precip Events Conditions
12:53 AM 48.9 °F 48.0 °F 97% 30.18 in 10.0 mi Calm Calm - N/A   Clear
1:53 AM 48.0 °F 46.9 °F 96% 30.18 in 10.0 mi Calm Calm - N/A   Clear
2:53 AM 46.9 °F 46.0 °F 97% 30.17 in 10.0 mi Calm Calm - N/A   Clear
3:53 AM 46.0 °F 46.0 °F 100% 30.17 in 10.0 mi Calm Calm - N/A   Clear
4:53 AM 46.0 °F 45.0 °F 96% 30.17 in 10.0 mi Calm Calm - N/A   Clear
5:53 AM 45.0 °F 45.0 °F 100% 30.17 in 10.0 mi Calm Calm - N/A   Clear
6:53 AM 46.0 °F 46.0 °F 100% 30.17 in 10.0 mi Calm Calm - N/A   Clear
7:53 AM 51.1 °F 50.0 °F 96% 30.18 in 10.0 mi Calm Calm - N/A   Clear
8:53 AM 55.9 °F 51.1 °F 84% 30.18 in 10.0 mi Calm Calm - N/A   Clear
9:53 AM 63.0 °F 52.0 °F 67% 30.19 in 10.0 mi Variable 4.6 mph - N/A   Clear
10:53 AM 68.0 °F 53.1 °F 59% 30.19 in 10.0 mi SW 9.2 mph - N/A   Clear
11:53 AM 69.1 °F 55.0 °F 61% 30.18 in 10.0 mi West 12.7 mph 18.4 mph N/A   Clear
12:53 PM 71.1 °F 55.0 °F 57% 30.17 in 10.0 mi SW 10.4 mph - N/A   Clear
1:53 PM 71.1 °F 55.0 °F 57% 30.15 in 10.0 mi WSW 9.2 mph 17.3 mph N/A   Clear
2:53 PM 72.0 °F 55.9 °F 57% 30.14 in 10.0 mi West 10.4 mph - N/A   Clear
3:53 PM 72.0 °F 55.9 °F 57% 30.14 in 10.0 mi WSW 10.4 mph - N/A   Clear
4:53 PM 73.0 °F 54.0 °F 51% 30.12 in 10.0 mi West 6.9 mph - N/A   Clear
5:53 PM 71.1 °F 55.9 °F 59% 30.13 in 10.0 mi West 6.9 mph - N/A   Clear
6:53 PM 70.0 °F 55.9 °F 61% 30.12 in 10.0 mi West 5.8 mph - N/A   Clear
7:53 PM 66.9 °F 57.0 °F 70% 30.12 in 10.0 mi WNW 3.5 mph - N/A   Clear
8:53 PM 62.1 °F 57.0 °F 84% 30.13 in 10.0 mi Calm Calm - N/A   Clear
9:53 PM 57.0 °F 55.9 °F 96% 30.13 in 10.0 mi Calm Calm - N/A   Clear
10:53 PM 55.9 °F 55.0 °F 97% 30.14 in 4.0 mi Calm Calm - N/A   Clear
11:53 PM 55.0 °F 54.0 °F 96% 30.14 in 6.0 mi Calm Calm - N/A   Clear